• En España
  • Lista de países
  • Para 7 días
  • Temperatura del agua
  • Mapa Satelital
  • El tiempo en el mapa
  • Informadores
  • user-avatar
    Iniciar sesión

    Tiempo cada hora Shiraz

    Hoy, 19 Septiembre, Miércoles

    Tiempo Temperatura Precipitaciones Viento Presión Humedad
    00:00 +29°C° 0 mm 1 mps 639 mmHg 42%
    01:00 +29°C° 0 mm 1 mps 638 mmHg 43%
    02:00 +28°C° 0 mm 1 mps 638 mmHg 43%
    03:00 +28°C° 0 mm 1 mps 638 mmHg 42%
    04:00 +27°C° 0 mm 1 mps 638 mmHg 41%
    05:00 +27°C° 0 mm 1 mps 638 mmHg 40%
    06:00 +25°C° 0 mm 0 mps 639 mmHg 40%
    07:00 +25°C° 0 mm 0 mps 639 mmHg 39%
    08:00 +27°C° 0 mm 0 mps 639 mmHg 33%
    09:00 +30°C° 0 mm 1 mps 640 mmHg 28%
    10:00 +32°C° 0 mm 1 mps 640 mmHg 23%
    11:00 +33°C° 0 mm 1 mps 640 mmHg 21%
    12:00 +33°C° 0 mm 1 mps 640 mmHg 19%
    13:00 +34°C° 0 mm 1 mps 640 mmHg 18%
    14:00 +35°C° 0 mm 2 mps 640 mmHg 17%
    15:00 +36°C° 0 mm 2 mps 639 mmHg 17%
    16:00 +36°C° 0 mm 2 mps 639 mmHg 17%
    17:00 +35°C° 0.1 mm 3 mps 639 mmHg 20%
    18:00 +34°C° 0.1 mm 3 mps 639 mmHg 23%
    19:00 +33°C° 0.1 mm 3 mps 639 mmHg 26%
    20:00 +31°C° 0 mm 2 mps 639 mmHg 30%
    21:00 +30°C° 0 mm 2 mps 639 mmHg 33%
    22:00 +30°C° 0 mm 1 mps 639 mmHg 37%
    23:00 +29°C° 0 mm 1 mps 639 mmHg 38%

    Mañana, 20 Septiembre, Jueves

    Tiempo Temperatura Precipitaciones Viento Presión Humedad
    00:00 +29°C° 0 mm 1 mps 638 mmHg 40%
    01:00 +28°C° 0 mm 1 mps 638 mmHg 42%
    02:00 +28°C° 0 mm 1 mps 638 mmHg 42%
    03:00 +27°C° 0 mm 1 mps 638 mmHg 42%
    04:00 +27°C° 0 mm 1 mps 637 mmHg 43%
    05:00 +27°C° 0 mm 1 mps 638 mmHg 42%
    06:00 +27°C° 0 mm 1 mps 638 mmHg 41%
    07:00 +27°C° 0 mm 1 mps 638 mmHg 40%
    08:00 +28°C° 0 mm 1 mps 639 mmHg 34%
    09:00 +30°C° 0 mm 1 mps 639 mmHg 27%
    10:00 +32°C° 0 mm 1 mps 640 mmHg 20%
    11:00 +32°C° 0 mm 1 mps 640 mmHg 18%
    12:00 +33°C° 0 mm 1 mps 640 mmHg 16%
    13:00 +34°C° 0 mm 1 mps 640 mmHg 14%
    14:00 +34°C° 0 mm 1 mps 640 mmHg 14%
    15:00 +34°C° 0 mm 1 mps 639 mmHg 15%
    16:00 +36°C° 0 mm 2 mps 639 mmHg 15%
    17:00 +35°C° 0.1 mm 2 mps 639 mmHg 17%
    18:00 +34°C° 0.1 mm 2 mps 638 mmHg 19%
    19:00 +32°C° 0.1 mm 2 mps 638 mmHg 21%
    20:00 +31°C° 0 mm 2 mps 638 mmHg 24%
    21:00 +31°C° 0 mm 2 mps 638 mmHg 26%
    22:00 +30°C° 0 mm 1 mps 639 mmHg 29%
    23:00 +30°C° 0 mm 1 mps 638 mmHg 30%

    Pasado mañana, 21 Septiembre, Viernes

    Tiempo Temperatura Precipitaciones Viento Presión Humedad
    00:00 +29°C° 0 mm 1 mps 638 mmHg 31%
    01:00 +29°C° 0 mm 1 mps 638 mmHg 32%
    02:00 +28°C° 0 mm 1 mps 638 mmHg 33%
    03:00 +28°C° 0 mm 1 mps 638 mmHg 33%
    04:00 +25°C° 0 mm 0 mps 637 mmHg 34%
    05:00 +25°C° 0 mm 0 mps 638 mmHg 34%
    06:00 +25°C° 0 mm 0 mps 638 mmHg 34%
    07:00 +24°C° 0 mm 0 mps 638 mmHg 34%
    08:00 +28°C° 0 mm 1 mps 639 mmHg 29%
    09:00 +30°C° 0 mm 1 mps 640 mmHg 24%
    10:00 +31°C° 0 mm 1 mps 640 mmHg 19%
    11:00 +32°C° 0 mm 1 mps 640 mmHg 18%
    12:00 +34°C° 0 mm 2 mps 640 mmHg 17%
    13:00 +35°C° 0 mm 2 mps 640 mmHg 16%
    14:00 +35°C° 0 mm 3 mps 640 mmHg 15%
    15:00 +35°C° 0 mm 3 mps 639 mmHg 14%
    16:00 +36°C° 0 mm 4 mps 639 mmHg 14%
    17:00 +35°C° 0 mm 4 mps 639 mmHg 16%
    18:00 +34°C° 0 mm 3 mps 639 mmHg 18%
    19:00 +33°C° 0 mm 3 mps 639 mmHg 21%
    20:00 +31°C° 0 mm 2 mps 639 mmHg 24%
    21:00 +30°C° 0 mm 2 mps 639 mmHg 27%
    22:00 +29°C° 0 mm 1 mps 639 mmHg 30%
    23:00 +28°C° 0 mm 1 mps 639 mmHg 33%

    22 Septiembre, Sábado

    Tiempo Temperatura Precipitaciones Viento Presión Humedad
    00:00 +28°C° 0 mm 1 mps 639 mmHg 35%
    01:00 +27°C° 0 mm 1 mps 639 mmHg 37%
    02:00 +27°C° 0 mm 1 mps 638 mmHg 38%
    03:00 +26°C° 0 mm 1 mps 638 mmHg 39%
    04:00 +26°C° 0 mm 1 mps 638 mmHg 40%
    05:00 +26°C° 0 mm 1 mps 638 mmHg 40%
    06:00 +26°C° 0 mm 1 mps 639 mmHg 39%
    07:00 +26°C° 0 mm 1 mps 639 mmHg 39%
    08:00 +27°C° 0 mm 1 mps 640 mmHg 34%
    09:00 +29°C° 0 mm 1 mps 640 mmHg 30%
    10:00 +30°C° 0 mm 1 mps 641 mmHg 25%
    11:00 +31°C° 0 mm 1 mps 641 mmHg 24%
    12:00 +32°C° 0 mm 1 mps 641 mmHg 22%
    13:00 +34°C° 0 mm 2 mps 640 mmHg 20%
    14:00 +34°C° 0 mm 2 mps 640 mmHg 20%
    15:00 +34°C° 0 mm 2 mps 640 mmHg 21%
    16:00 +34°C° 0 mm 2 mps 639 mmHg 21%
    17:00 +32°C° 0 mm 2 mps 639 mmHg 23%
    18:00 +32°C° 0 mm 2 mps 639 mmHg 24%
    19:00 +31°C° 0 mm 2 mps 639 mmHg 26%
    20:00 +30°C° 0 mm 1 mps 640 mmHg 28%
    21:00 +30°C° 0 mm 1 mps 640 mmHg 30%
    22:00 +29°C° 0 mm 1 mps 640 mmHg 32%
    23:00 +29°C° 0 mm 1 mps 640 mmHg 33%

    23 Septiembre, Domingo

    Tiempo Temperatura Precipitaciones Viento Presión Humedad
    00:00 +28°C° 0 mm 1 mps 640 mmHg 33%
    01:00 +25°C° 0 mm 0 mps 640 mmHg 34%
    02:00 +27°C° 0 mm 1 mps 639 mmHg 34%
    03:00 +27°C° 0 mm 1 mps 639 mmHg 33%
    04:00 +26°C° 0 mm 1 mps 639 mmHg 33%
    05:00 +26°C° 0 mm 1 mps 639 mmHg 32%
    06:00 +26°C° 0 mm 1 mps 640 mmHg 31%
    07:00 +26°C° 0 mm 1 mps 640 mmHg 31%
    08:00 +28°C° 0 mm 1 mps 641 mmHg 27%
    09:00 +29°C° 0 mm 1 mps 641 mmHg 23%
    10:00 +31°C° 0 mm 1 mps 642 mmHg 20%
    11:00 +31°C° 0 mm 1 mps 642 mmHg 19%
    12:00 +32°C° 0 mm 1 mps 641 mmHg 18%
    13:00 +33°C° 0 mm 1 mps 641 mmHg 17%
    14:00 +34°C° 0 mm 2 mps 641 mmHg 17%
    15:00 +34°C° 0 mm 2 mps 640 mmHg 17%
    16:00 +35°C° 0 mm 2 mps 640 mmHg 18%
    17:00 +34°C° 0.1 mm 2 mps 640 mmHg 20%
    18:00 +32°C° 0.1 mm 2 mps 640 mmHg 22%
    19:00 +31°C° 0.1 mm 2 mps 640 mmHg 24%
    20:00 +30°C° 0 mm 2 mps 640 mmHg 27%
    21:00 +30°C° 0 mm 2 mps 640 mmHg 30%
    22:00 +29°C° 0 mm 2 mps 640 mmHg 32%
    23:00 +28°C° 0 mm 1 mps 640 mmHg 34%

    24 Septiembre, Lunes

    Tiempo Temperatura Precipitaciones Viento Presión Humedad
    00:00 +28°C° 0 mm 1 mps 639 mmHg 36%
    01:00 +27°C° 0 mm 1 mps 639 mmHg 38%
    02:00 +27°C° 0 mm 1 mps 639 mmHg 39%
    03:00 +26°C° 0 mm 1 mps 638 mmHg 41%
    04:00 +26°C° 0 mm 1 mps 638 mmHg 43%
    05:00 +26°C° 0 mm 1 mps 638 mmHg 42%
    06:00 +24°C° 0 mm 0 mps 639 mmHg 42%
    07:00 +24°C° 0 mm 0 mps 639 mmHg 42%
    08:00 +25°C° 0 mm 0 mps 640 mmHg 37%
    09:00 +29°C° 0 mm 1 mps 640 mmHg 31%
    10:00 +30°C° 0 mm 1 mps 641 mmHg 26%
    11:00 +31°C° 0 mm 1 mps 641 mmHg 24%
    12:00 +32°C° 0 mm 1 mps 640 mmHg 22%
    13:00 +34°C° 0 mm 2 mps 640 mmHg 21%
    14:00 +34°C° 0.1 mm 2 mps 640 mmHg 20%
    15:00 +34°C° 0.1 mm 3 mps 639 mmHg 20%
    16:00 +35°C° 0.1 mm 3 mps 639 mmHg 19%
    17:00 +34°C° 0.2 mm 3 mps 639 mmHg 22%
    18:00 +33°C° 0.2 mm 3 mps 639 mmHg 24%
    19:00 +31°C° 0.2 mm 2 mps 639 mmHg 26%
    20:00 +30°C° 0.1 mm 2 mps 639 mmHg 28%
    21:00 +29°C° 0.1 mm 1 mps 639 mmHg 30%
    22:00 +29°C° 0.1 mm 1 mps 639 mmHg 32%
    23:00 +28°C° 0 mm 1 mps 639 mmHg 33%
    Mostrar más